This demonstration page uses our WeatherBlox Daily Observations layout. Learn more.

Left ArrowRight Arrow

44.8408, -93.29828

Hourly Observations for April 6, 2019

Temp ( °F °C ) Dew Point ( °F °C ) Humidity (%) Winds ( mph kmh ) Pressure ( in mb ) Visibility ( mi km ) Precip ( " mm )
12:48 am 00:48 Cloudy with Rain 46 8 43 6 87 87 ESE 8 13 30.03 1017 3 4 0.03 0.76
12:53 am 00:53 Cloudy with Light Rain 46 7.8 44 6.7 93 93 ESE 9 15 30.02 1017 2 3 0.04 1.02
1:06 am 01:06 Cloudy with Light Rain 46 7.8 44 6.7 93 93 SE 7 11 30.03 1017 2 3 0.03 0.76
1:21 am 01:21 Cloudy with Light Rain 46 7.8 45 7.2 96 96 SE 9 15 30.02 1017 2 3 0.06 1.52
1:36 am 01:36 Cloudy with Light Rain 47 8.3 45 7.2 93 93 SE 12 19 30.02 1016 3 5 0.07 1.78
1:53 am 01:53 Cloudy with Mist and Fog 46 7.8 45 7.2 96 96 ESE 9 15 30.01 1016 3 5 0.07 1.78
2:06 am 02:06 Cloudy with Light Rain 46 7.8 45 7.2 96 96 N 5 7 30.03 1017 3 4 0.00 0.03
2:15 am 02:15 Cloudy with Light Rain 46 7.8 45 7.2 96 96 NNW 7 11 30.04 1017 3 5 0.01 0.25
2:25 am 02:25 Cloudy with Heavy Rain 46 7.8 45 7.2 96 96 NNW 6 9 30.04 1017 2 3 0.05 1.27
2:33 am 02:33 Cloudy with Heavy Rain 46 7.8 45 7.2 96 96 NE 6 9 30.03 1017 1 1 0.18 4.57
2:48 am 02:48 Cloudy with Heavy Rain 46 8 45 7 93 93 ENE 6 9 30.02 1017 1 2 0.33 8.38
2:53 am 02:53 Cloudy with Heavy Rain 46 7.8 46 7.8 100 100 E 7 11 30.01 1016 1 2 0.36 9.14
3:01 am 03:01 Cloudy with Light Rain 46 7.8 45 7.2 96 96 E 10 17 30.00 1016 2 3 0.03 0.76
3:48 am 03:48 Cloudy with Light Rain 46 8 46 8 100 100 ESE 6 9 30.01 1016 3 5 0.09 2.29
3:53 am 03:53 Cloudy with Light Rain 47 8.3 46 7.8 97 97 ESE 7 11 29.99 1016 3 5 0.09 2.29
4:13 am 04:13 Cloudy with Light Rain 47 8.3 46 7.8 97 97 ESE 9 15 30.00 1016 3 4 0.03 0.76
4:25 am 04:25 Cloudy with Light Rain 47 8.3 46 7.8 97 97 ESE 7 11 30.01 1016 3 5 0.04 1.02
4:34 am 04:34 Cloudy with Light Rain 47 8.3 46 7.8 97 97 ESE 10 17 30.01 1016 2 3 0.07 1.78
4:53 am 04:53 Cloudy with Light Rain 47 8.3 46 7.8 97 97 ESE 9 15 30.00 1016 3 4 0.09 2.29
5:01 am 05:01 Cloudy with Light Rain 47 8.3 46 7.8 97 97 SSE 8 13 30.01 1016 3 5 0.01 0.25
5:19 am 05:19 Cloudy with Light Rain 48 8.9 46 7.8 93 93 SSE 10 17 30.00 1016 2 3 0.04 1.02
5:28 am 05:28 Cloudy with Rain 47 8.3 46 7.8 97 97 SE 9 15 30.01 1016 2 3 0.05 1.27
5:53 am 05:53 Cloudy with Light Rain 48 8.9 46 7.8 93 93 SSE 12 19 30.00 1016 2 3 0.09 2.29
6:53 am 06:53 Cloudy with Light Rain 47 8.3 46 7.8 97 97 SE 7 11 30.00 1016 3 5 0.13 3.30
7:28 am 07:28 Cloudy with Light Rain 47 8.3 46 7.8 97 97 SE 10 17 30.01 1016 2 3 0.02 0.51
7:53 am 07:53 Cloudy with Light Rain 48 8.9 46 7.8 93 93 ESE 14 22 29.99 1016 3 5 0.03 0.76
8:06 am 08:06 Cloudy with Light Rain 48 8.9 46 7.8 93 93 ESE 13 20 29.98 1015 3 4 0.01 0.25
8:21 am 08:21 Cloudy with Light Rain 48 8.9 46 7.8 93 93 SE 14 22 29.99 1016 2 3 0.01 0.25
8:30 am 08:30 Cloudy with Light Rain 48 8.9 46 7.8 93 93 SE 13 20 30.00 1016 2 3 0.01 0.25
8:49 am 08:49 Cloudy with Light Rain 48 9 46 8 94 94 SE 12 19 30.00 1016 2 3 0.02 0.51
8:53 am 08:53 Cloudy with Light Rain 48 8.9 46 7.8 93 93 ESE 13 20 30.00 1016 3 4 0.02 0.51
9:08 am 09:08 Cloudy with Mist and Fog 48 8.9 46 7.8 93 93 ESE 12 19 29.99 1016 3 4 0.00 0.03
9:17 am 09:17 Cloudy with Mist and Fog 48 8.9 46 7.8 93 93 ESE 14 22 29.98 1015 3 4 0.00 0.03
9:53 am 09:53 Cloudy with Light Rain 48 8.9 46 7.8 93 93 ESE 10 17 29.99 1016 3 4 0.01 0.25
10:12 am 10:12 Cloudy with Light Rain 48 8.9 46 7.8 93 93 ESE 13 20 29.98 1015 2 3 0.03 0.76
10:33 am 10:33 Cloudy with Mist and Fog 48 8.9 46 7.8 93 93 ESE 12 19 29.98 1015 3 4 0.05 1.27
10:40 am 10:40 Cloudy with Mist and Fog 48 8.9 46 7.8 93 93 ESE 10 17 29.98 1015 3 5 0.05 1.27
10:53 am 10:53 Cloudy with Mist and Fog 48 8.9 46 7.8 93 93 ESE 9 15 29.98 1015 3 5 0.05 1.27
11:02 am 11:02 Cloudy with Mist and Fog 48 8.9 46 7.8 93 93 ESE 13 20 29.99 1016 3 4 0.00 0.00
11:11 am 11:11 Cloudy with Mist and Fog 48 8.9 46 7.8 93 93 SE 7 11 29.99 1016 3 4 0.00 0.00
11:18 am 11:18 Cloudy with Light Rain 48 8.9 46 7.8 93 93 ESE 12 19 29.98 1015 1 2 0.00 0.03
11:36 am 11:36 Cloudy with Mist and Fog 48 8.9 46 7.8 93 93 ESE 13 20 29.97 1015 2 2 0.01 0.25
11:44 am 11:44 Cloudy with Mist and Fog 48 8.9 46 7.8 93 93 ESE 12 19 29.97 1015 2 3 0.01 0.25
11:53 am 11:53 Cloudy with Mist and Fog 48 8.9 46 7.8 93 93 ESE 13 20 29.97 1015 2 3 0.01 0.25
12:53 pm 12:53 Cloudy with Mist and Fog 50 10 47 8.3 89 89 SE 13 20 29.96 1014 4 6 0.00 0.00
1:03 pm 13:03 Cloudy with Mist and Fog 50 10 47 8.3 89 89 SE 9 15 29.96 1015 4 6 0.00 0.00
1:53 pm 13:53 Cloudy with Mist and Fog 51 10.6 48 8.9 89 89 SE 8 13 29.95 1014 5 8 0.00 0.00
2:53 pm 14:53 Cloudy with Mist and Fog 52 11.1 48 8.9 86 86 ESE 9 15 29.94 1014 5 8 0.00 0.00
3:53 pm 15:53 Cloudy with Haze 53 11.7 48 8.9 83 83 ESE 9 15 29.93 1014 6 10 0.00 0.00
4:02 pm 16:02 Cloudy with Haze 53 11.7 48 8.9 83 83 ESE 9 15 29.92 1013 6 10 0.00 0.00
4:43 pm 16:43 Cloudy with Haze 52 11.1 47 8.3 83 83 ESE 8 13 29.93 1013 5 8 0.00 0.00
4:53 pm 16:53 Cloudy with Haze 52 11.1 47 8.3 83 83 ESE 9 15 29.93 1013 5 8 0.00 0.00
5:53 pm 17:53 Cloudy with Haze 51 10.6 46 7.8 83 83 E 8 13 29.92 1013 6 10 0.00 0.00
6:06 pm 18:06 Cloudy with Mist and Fog 51 10.6 47 8.3 86 86 E 8 13 29.92 1013 6 10 0.00 0.00
6:32 pm 18:32 Cloudy with Mist and Fog 51 10.6 47 8.3 86 86 E 9 15 29.92 1013 6 10 0.00 0.00
6:53 pm 18:53 Cloudy with Mist and Fog 51 10.6 47 8.3 86 86 E 10 17 29.91 1013 5 8 0.00 0.00
7:53 pm 19:53 Cloudy with Mist and Fog 50 10 46 7.8 86 86 E 7 11 29.91 1013 6 10 0.00 0.00
8:51 pm 20:51 Mostly Cloudy with Mist and Fog 50 10 46 8 88 88 ENE 7 11 29.91 1013 6 10 0.00 0.00
8:53 pm 20:53 Mostly Cloudy with Mist and Fog 50 10 46 7.8 86 86 ENE 8 13 29.91 1013 6 10 0.00 0.00
9:53 pm 21:53 Mostly Cloudy with Mist and Fog 49 9.4 46 7.8 90 90 E 9 15 29.90 1013 6 10 0.00 0.00
10:53 pm 22:53 Mostly Cloudy with Mist and Fog 49 9.4 46 7.8 90 90 E 8 13 29.90 1012 6 10 0.00 0.00
11:53 pm 23:53 Mostly Cloudy with Mist and Fog 49 9.4 46 7.8 90 90 E 6 9 29.88 1012 6 10 0.00 0.00

Powered by AerisWeather